Location: *
(46.0770°N, 1.6444°E)
Time: 08:01:13
(UTC+00:00)

Cosmos 676 Rocket - Pass Details

Date: 16 September 2019
Orbit: 755 x 783 km, 74.0° (Epoch: 20 October)

Event Time Altitude Azimuth Distance (km) Brightness Sun altitude
Rises 20:15:48 0° 340° (NNW) 3,264 8.0 -22.6°
Reaches altitude 10° 20:18:14 10° 344° (NNW) 2,328 7.1 -23.0°
Maximum altitude 20:23:29 64° 66° (ENE) 852 4.0 -23.8°
Enters shadow 20:23:53 62° 91° (E) 867 3.9 -23.8°
